sat.trackr.live / text

‹ back to catalog

KOREASAT 116

NORAD 45920 · 2020-048A

PAYLOAD ACTIVE UNKNOWN

§ Identity

Operator
Country
SKOR
Launch date
2020-07-20
Launch site
AFETR
Launch vehicle
Mass (kg)
RCS (m²)

Purposes: comms

External: N2YO · Heavens-Above · Gunter

§ Orbital elements

Epoch: 2026-05-25T00:52:28.611264Z

Period
1,436.06 min
Inclination
0.0123°
Eccentricity
0.0000920
Mean motion
1.00274217 rev/d
Perigee alt
35,782.0 km
Apogee alt
35,789.8 km
Semi-major
42,164.1 km
B*
0.0000e+0
RAAN
301.2710°
Arg perigee
117.6637°
Mean anomaly
313.0042°
Rev number
2,140

§ Raw data

KOREASAT 1161 45920U 20048A   26145.03644226 -.00000365  00000+0  00000+0 0  99922 45920   0.0123 301.2710 0000920 117.6637 313.0042  1.00274217 21408

JSON: /api/v1/satellites/45920 · /tle

For live sub-satellite position, see the globe view (requires WebGL).

§ Visibility from observer

Set your observer location to see the next 7 days of passes ≥ 10°. The values pass through the URL so the page stays shareable.

No JS? Fill the form by hand. The geolocation button needs JavaScript.